Weather reports worldwide

Advertisment
Lindenberg, Germany (10393): temperature & dewpoint: 16.06.2018 20:00:00 - 22.06.2018 20:00:00 (CEST)Lindenberg, Germany (10393): temperature 5cm & temperature -5cm: 16.06.2018 20:00:00 - 22.06.2018 20:00:00 (CEST)Lindenberg, Germany (10393): temperature -20cm & temperature -100cm: 16.06.2018 20:00:00 - 22.06.2018 20:00:00 (CEST)Lindenberg, Germany (10393): wind speed & gusts: 16.06.2018 20:00:00 - 22.06.2018 20:00:00 (CEST)Lindenberg, Germany (10393): wind direction: 16.06.2018 20:00:00 - 22.06.2018 20:00:00 (CEST)Lindenberg, Germany (10393): reduced air pressure: 16.06.2018 20:00:00 - 22.06.2018 20:00:00 (CEST)Lindenberg, Germany (10393): visibility: 16.06.2018 20:00:00 - 22.06.2018 20:00:00 (CEST)Lindenberg, Germany (10393): sunshine duration: 16.06.2018 20:00:00 - 22.06.2018 20:00:00 (CEST)Lindenberg, Germany (10393): precipitation: 16.06.2018 20:00:00 - 22.06.2018 20:00:00 (CEST)
Date & Time tt [°C] td [°C] tt 5cm [°C] tt -5cm [°C] tt -20cm [°C] tt -100cm [°C] ff [km/h] ff [kn] fx [km/h] fx [kn] dd ppp [hPa] vv [km] sd [min] rr [mm]
22.06.2018 20:00:00 16,4 6,6 16,6 22,4 21,9 20,2 11 6 27 15 W 1017,4 45 53 0,0
22.06.2018 19:00:00 16,8 6,3 18,2 23,5 21,8 20,2 12 7 37 20 W 1017,4 40 14 0,0
22.06.2018 18:00:00 16,9 7,8 20,7 25,1 21,4 20,2 16 9 34 18 W 1017,3 45 43 0,0
22.06.2018 17:00:00 17,0 8,4 22,5 27,0 20,8 20,2 14 7 31 17 WSW 1017,4 30 52 0,0
22.06.2018 16:00:00 14,9 7,3 19,8 23,4 20,4 20,2 19 10 46 25 WSW 1017,5 40 16 0,0
22.06.2018 15:00:00 15,6 6,7 22,9 26,1 19,7 20,2 20 11 34 19 W 1017,0 30 51 0,0
22.06.2018 14:00:00 13,2 7,4 16,8 21,1 19,4 20,3 18 10 32 17 SW 1017,3 35 15 0,2
22.06.2018 13:00:00 13,0 7,5 12,5 19,9 19,1 20,3 16 9 31 17 W 1017,1 35 4 0,0
22.06.2018 12:00:00 13,1 5,8 14,1 19,0 18,9 20,3 16 9 33 18 WNW 1016,9 45 1 0,0
22.06.2018 11:00:00 12,8 5,8 14,3 17,5 18,7 20,3 19 11 41 22 W 1016,8 45 1 0,0
22.06.2018 10:00:00 12,3 5,9 13,6 17,2 18,6 20,3 22 12 44 24 W 1016,4 40 5 0,0
22.06.2018 09:00:00 12,1 6,0 14,6 16,7 18,4 20,3 27 14 42 23 W 1016,1 40 12 0,0
22.06.2018 08:00:00 11,1 6,0 12,2 14,7 18,5 20,3 22 12 35 19 W 1016,0 35 0 0,0
22.06.2018 07:00:00 10,3 5,9 10,8 13,7 18,7 20,3 20 11 34 18 W 1016,2 30 3 0,0
22.06.2018 06:00:00 9,5 5,7 9,8 12,3 19,0 20,3 19 11 35 19 W 1016,4 20 0 0,0
22.06.2018 05:00:00 9,7 5,8 8,8 12,4 19,4 20,3 18 10 36 19 W 1016,3 30 0 0,0
22.06.2018 04:00:00 10,1 5,7 9,0 12,6 19,9 20,3 21 11 40 22 W 1016,5 40 0 0,0
22.06.2018 03:00:00 10,7 5,8 9,7 13,1 20,3 20,3 22 12 38 20 W 1016,5 40 0 0,0
22.06.2018 02:00:00 11,0 5,7 10,0 13,6 20,8 20,2 21 11 38 20 W 1016,2 40 0 0,0
22.06.2018 01:00:00 11,2 6,0 9,9 14,3 21,4 20,2 16 9 27 15 W 1016,3 40 0 0,0
22.06.2018 00:00:00 12,1 5,3 10,8 15,0 22,0 20,2 13 7 37 20 W 1016,7 40 0 0,0
21.06.2018 23:00:00 12,9 4,4 11,9 15,9 22,6 20,2 22 12 50 27 WNW 1016,5 40 0 0,0
21.06.2018 22:00:00 13,9 4,5 13,0 17,2 23,1 20,2 23 12 44 24 WNW 1015,8 40 2 0,0
21.06.2018 21:00:00 15,0 5,0 14,7 18,8 23,7 20,2 28 15 54 29 WNW 1015,1 30 27 0,0
21.06.2018 20:00:00 16,0 4,1 16,1 20,5 24,1 20,2 29 16 56 30 WNW 1014,2 30 41 0,0
21.06.2018 19:00:00 16,8 4,3 17,9 22,0 24,5 20,2 27 15 53 29 W 1013,6 30 59 0,0
21.06.2018 18:00:00 15,3 6,7 16,7 21,7 25,1 20,2 23 13 45 25 WNW 1013,2 40 19 0,0
21.06.2018 17:00:00 13,3 10,6 13,8 21,6 25,8 20,2 15 8 34 19 W 1013,0 25 0 0,7
21.06.2018 16:00:00 12,9 9,6 12,5 25,1 26,2 20,2 26 14 58 31 WNW 1012,6 10 8 0,2
21.06.2018 15:00:00 19,3 10,0 23,0 29,4 26,2 20,2 30 16 58 31 WNW 1010,4 15 24 0,1
21.06.2018 14:00:00 19,6 12,5 20,2 31,8 25,9 20,2 35 19 66 36 WNW 1008,8 10 13 0,0
21.06.2018 13:00:00 28,2 12,3 32,3 33,7 25,3 20,2 29 16 53 29 W 1006,4 40 36 0,0
21.06.2018 12:00:00 27,5 12,9 29,8 34,1 24,6 20,2 32 17 50 27 WSW 1007,1 40 37 0,0
21.06.2018 11:00:00 26,9 13,3 30,3 33,5 23,8 20,2 21 11 40 21 SW 1008,1 40 58 0,0
21.06.2018 10:00:00 26,0 13,5 30,8 30,2 23,1 20,1 17 9 33 18 SW 1009,3 25 60 0,0
21.06.2018 09:00:00 24,7 13,9 27,7 26,8 22,8 20,1 12 6 27 14 SW 1010,5 25 48 0,0
21.06.2018 08:00:00 22,7 14,8 25,5 23,3 22,7 20,1 9 5 18 10 SSW 1011,6 20 60 0,0
21.06.2018 07:00:00 20,2 14,6 21,7 21,6 22,9 20,1 6 3 13 7 S 1012,1 25 50 0,0
21.06.2018 06:00:00 18,9 14,5 17,4 20,0 23,2 20,1 9 5 12 7 SSE 1012,5 25 4 0,0
21.06.2018 05:00:00 17,9 13,5 15,6 19,8 23,6 20,1 3 2 8 4 W 1013,1 20 0 0,0
21.06.2018 04:00:00 19,0 13,5 15,8 20,3 24,0 20,1 6 3 10 6 N 1013,5 20 0 0,0
21.06.2018 03:00:00 18,1 15,0 15,5 20,8 24,4 20,1 7 4 14 7 NNW 1014,4 20 0 0,0
21.06.2018 02:00:00 18,8 14,5 16,4 21,5 24,9 20,1 10 5 15 8 NW 1014,9 20 0 0,0
21.06.2018 01:00:00 19,2 14,4 16,7 22,1 25,4 20,1 7 4 11 6 NNW 1015,0 30 0 0,0
21.06.2018 00:00:00 20,0 15,0 17,2 23,1 25,9 20,1 8 4 9 5 WNW 1015,4 30 0 0,0
20.06.2018 23:00:00 21,9 14,8 17,8 24,4 26,5 20,1 7 4 8 5 S 1015,6 40 0 0,0
20.06.2018 22:00:00 23,3 14,7 19,7 26,1 26,9 20,1 5 3 6 4 SE 1016,0 40 6 0,0
20.06.2018 21:00:00 25,1 14,7 23,3 28,9 27,1 20,1 3 2 10 5 W 1016,0 45 33 0,0
20.06.2018 20:00:00 27,4 14,0 26,9 31,2 27,2 20,1 7 4 16 9 W 1016,1 40 58 0,0
20.06.2018 19:00:00 28,0 13,7 29,2 32,7 27,0 20,1 9 5 24 13 WSW 1016,7 40 48 0,0
20.06.2018 18:00:00 27,5 13,2 29,7 33,8 26,6 20,1 12 6 21 12 SW 1017,4 35 22 0,0
20.06.2018 17:00:00 27,5 13,1 30,4 36,1 26,0 20,1 10 5 25 14 WSW 1018,4 30 49 0,0
20.06.2018 16:00:00 26,6 12,7 30,5 35,4 25,4 20,1 14 8 26 14 SW 1019,2 30 27 0,0
20.06.2018 15:00:00 26,5 13,9 31,0 32,6 24,8 20,1 13 7 25 13 SW 1020,0 30 15 0,0
20.06.2018 14:00:00 24,9 13,9 29,4 31,7 24,3 20,1 13 7 24 13 SSW 1020,7 25 11 0,0
20.06.2018 13:00:00 23,8 14,5 26,9 30,5 23,7 20,1 8 4 22 12 SSW 1021,6 30 3 0,0
20.06.2018 12:00:00 23,0 14,1 25,8 31,6 22,9 20,1 9 5 18 10 S 1022,2 25 23 0,0
20.06.2018 11:00:00 22,2 14,0 27,5 28,5 22,4 20,1 7 4 17 9 SSW 1022,7 25 3 0,0
20.06.2018 10:00:00 20,6 13,5 23,8 25,6 22,0 20,1 6 3 14 8 S 1023,2 30 0 0,0
20.06.2018 09:00:00 19,6 13,0 22,1 23,7 21,7 20,1 3 2 14 8 SSE 1023,4 30 3 0,0
20.06.2018 08:00:00 19,0 12,5 21,0 21,6 21,6 20,1 6 3 9 5 ENE 1023,7 25 4 0,0
20.06.2018 07:00:00 17,6 14,8 18,6 19,8 21,8 20,1 2 1 6 4 SE 1023,6 15 0 0,0
20.06.2018 06:00:00 15,7 14,2 15,4 18,2 22,0 20,1 6 3 8 4 WNW 1023,6 20 0 0,0
20.06.2018 05:00:00 15,0 13,5 12,6 17,9 22,4 20,0 3 2 7 4 SW 1023,4 15 0 0,0
20.06.2018 04:00:00 15,6 13,9 13,1 18,5 22,8 20,0 4 2 8 4 NNW 1023,2 20 0 0,0
20.06.2018 03:00:00 16,1 14,0 13,6 18,9 23,2 20,0 5 3 12 6 WNW 1023,2 30 0 0,0
20.06.2018 02:00:00 16,3 13,9 13,7 19,4 23,7 20,0 8 4 13 7 WNW 1023,1 30 0 0,0
20.06.2018 01:00:00 16,6 14,2 13,9 20,1 24,2 20,0 9 5 16 9 WNW 1022,7 30 0 0,0
20.06.2018 00:00:00 17,5 14,4 14,6 21,0 24,7 20,0 10 6 15 8 WNW 1022,6 30 0 0,0
19.06.2018 23:00:00 18,4 14,2 15,4 22,0 25,2 20,0 9 5 13 7 W 1022,4 30 0 0,0
19.06.2018 22:00:00 19,6 14,3 16,6 23,4 25,6 20,0 8 5 14 8 WNW 1022,0 30 0 0,0
19.06.2018 21:00:00 21,6 14,2 19,6 25,4 25,9 20,0 8 4 21 11 W 1021,4 35 54 0,0
19.06.2018 20:00:00 23,3 13,7 24,0 26,9 26,2 20,0 14 7 24 13 W 1021,2 40 12 0,0
19.06.2018 19:00:00 23,1 13,1 23,5 27,9 26,4 20,0 16 8 32 17 W 1021,3 35 0 0,0
19.06.2018 18:00:00 24,1 12,0 25,7 30,1 26,4 20,0 18 10 33 18 W 1020,9 30 1 0,0
19.06.2018 17:00:00 24,4 11,7 26,9 31,3 26,3 20,0 20 11 34 18 W 1020,9 40 3 0,0
19.06.2018 16:00:00 24,2 12,1 26,9 31,4 26,1 20,0 16 9 33 18 WNW 1020,8 40 1 0,0
19.06.2018 15:00:00 24,6 11,4 29,6 33,3 25,6 20,0 16 9 32 18 W 1020,6 40 2 0,0
19.06.2018 14:00:00 24,1 11,4 27,9 33,7 25,0 20,0 13 7 29 16 WNW 1020,6 40 14 0,0
19.06.2018 13:00:00 23,9 11,2 28,5 34,2 24,2 20,0 14 7 34 18 W 1020,5 40 45 0,0
19.06.2018 12:00:00 23,2 10,9 30,2 33,3 23,2 20,0 19 10 32 17 W 1020,7 40 59 0,0
19.06.2018 11:00:00 22,2 11,2 27,5 30,2 22,5 20,0 18 10 29 16 W 1020,8 30 59 0,0
19.06.2018 10:00:00 21,0 12,2 26,2 26,1 22,1 20,0 21 11 37 20 W 1020,7 30 36 0,0
19.06.2018 09:00:00 19,5 12,3 22,2 23,0 22,0 20,0 17 9 31 17 W 1020,8 20 1 0,0
19.06.2018 08:00:00 18,9 12,9 20,4 21,6 22,0 20,0 13 7 22 12 W 1020,5 20 14 0,0
19.06.2018 07:00:00 18,4 13,0 19,3 20,6 22,1 20,0 9 5 14 8 WSW 1019,9 30 16 0,0
19.06.2018 06:00:00 17,1 12,4 16,8 19,5 22,3 20,0 8 4 11 6 WSW 1019,8 30 0 0,0
19.06.2018 05:00:00 17,6 12,3 17,2 19,6 22,6 20,0 9 5 15 8 W 1019,5 40 0 0,0
19.06.2018 04:00:00 17,5 11,7 17,1 19,8 22,9 20,0 8 5 16 9 WSW 1019,7 40 0 0,0
19.06.2018 03:00:00 17,5 11,7 16,9 19,7 23,3 20,0 10 5 16 9 SW 1019,7 40 0 0,0
19.06.2018 02:00:00 17,5 11,4 14,0 20,2 23,8 20,0 8 5 14 8 SSW 1019,5 40 0 0,0
19.06.2018 01:00:00 18,9 11,4 17,3 21,6 24,1 20,0 8 4 11 6 SW 1019,6 40 0 0,0
19.06.2018 00:00:00 19,2 11,5 17,5 22,2 24,5 20,0 6 3 8 5 SW 1019,8 40 0 0,0
18.06.2018 23:00:00 19,9 11,1 18,5 23,0 24,9 20,0 7 4 10 6 SW 1019,8 40 0 0,0
18.06.2018 22:00:00 20,3 11,5 19,1 23,9 25,2 20,0 7 4 9 5 SSW 1019,4 40 0 0,0
18.06.2018 21:00:00 21,5 11,2 20,9 25,3 25,5 20,0 5 3 14 8 SSW 1018,9 60 0 0,0
18.06.2018 20:00:00 22,3 10,0 22,7 26,8 25,7 20,0 8 5 21 11 WSW 1018,8 60 1 0,0
18.06.2018 19:00:00 22,9 9,3 24,1 28,2 25,7 19,9 9 5 24 13 W 1019,1 50 1 0,0
18.06.2018 18:00:00 22,7 8,1 24,9 30,7 25,5 19,9 16 9 29 16 W 1019,1 35 44 0,0
18.06.2018 17:00:00 23,7 9,2 29,0 29,2 25,4 19,9 16 9 26 14 WSW 1019,2 45 8 0,0
18.06.2018 16:00:00 22,2 8,5 23,9 29,9 25,2 19,9 13 7 27 14 W 1019,4 45 7 0,0
18.06.2018 15:00:00 22,4 8,2 26,1 31,0 24,8 19,9 13 7 29 16 W 1019,4 40 11 0,0
18.06.2018 14:00:00 22,4 9,5 26,3 31,2 24,5 19,9 17 9 30 16 SW 1019,8 35 17 0,0
18.06.2018 13:00:00 20,9 10,4 22,5 29,8 24,0 19,9 18 10 35 19 W 1019,8 35 16 0,0
18.06.2018 12:00:00 21,2 10,1 26,2 32,4 23,2 19,9 12 7 24 13 W 1019,7 35 55 0,0
18.06.2018 11:00:00 20,3 10,5 27,7 29,9 22,5 19,9 13 7 24 13 WNW 1019,9 30 26 0,0
18.06.2018 10:00:00 21,3 11,0 29,1 28,2 21,9 19,9 13 7 21 11 W 1019,4 30 41 0,0
18.06.2018 09:00:00 19,9 9,9 25,8 25,0 21,6 19,9 13 7 20 11 WSW 1019,4 30 54 0,0
18.06.2018 08:00:00 17,4 9,8 21,7 20,4 21,6 19,9 8 4 18 10 W 1019,1 25 60 0,0
18.06.2018 07:00:00 15,6 9,7 18,5 19,1 21,9 19,9 11 6 18 10 W 1019,0 30 60 0,0
18.06.2018 06:00:00 14,2 9,6 12,8 17,5 22,3 19,9 8 5 16 9 WNW 1018,8 35 6 0,0
18.06.2018 05:00:00 13,4 8,9 11,3 17,8 22,8 19,8 10 5 15 8 W 1018,8 35 0 0,0
18.06.2018 04:00:00 14,3 8,7 11,4 18,6 23,2 19,8 9 5 18 10 NW 1018,2 40 0 0,0
18.06.2018 03:00:00 16,7 8,8 15,3 20,0 23,6 19,8 9 5 16 8 WNW 1018,2 40 0 0,0
18.06.2018 02:00:00 17,2 9,1 15,5 20,4 24,0 19,8 9 5 14 8 WNW 1018,2 40 0 0,0
18.06.2018 01:00:00 17,3 8,9 15,3 21,1 24,5 19,8 7 4 16 9 WNW 1018,0 45 0 0,0
18.06.2018 00:00:00 18,4 8,8 16,6 22,2 24,9 19,8 6 4 16 9 NW 1017,4 45 0 0,0
17.06.2018 23:00:00 20,7 8,1 19,9 23,3 25,3 19,8 7 4 24 13 NW 1016,9 45 0 0,0
17.06.2018 22:00:00 21,7 8,5 21,1 24,3 25,7 19,8 9 5 24 13 NW 1016,8 45 0 0,0
17.06.2018 21:00:00 22,1 9,8 21,5 25,6 26,0 19,8 9 5 30 16 WNW 1016,1 45 6 0,0
17.06.2018 20:00:00 23,2 9,6 23,2 27,4 26,2 19,8 18 10 33 18 WNW 1015,5 35 23 0,0
17.06.2018 19:00:00 23,8 11,0 24,5 28,1 26,3 19,8 14 7 26 14 WNW 1014,7 25 7 0,0
17.06.2018 18:00:00 25,0 13,0 27,5 30,4 26,4 19,8 12 7 30 16 WNW 1014,2 20 45 0,1
17.06.2018 17:00:00 23,7 14,2 20,7 29,3 26,4 19,8 18 10 37 20 W 1014,4 20 0 0,0
17.06.2018 16:00:00 25,0 13,7 27,2 31,6 26,2 19,8 15 8 29 15 WNW 1013,8 30 8 0,0
17.06.2018 15:00:00 26,1 13,7 30,5 32,1 25,9 19,8 14 7 29 16 W 1013,8 30 4 0,0
17.06.2018 14:00:00 25,5 13,7 28,0 31,8 25,5 19,7 14 8 29 15 WNW 1013,7 30 13 0,0
17.06.2018 13:00:00 25,7 13,0 31,2 33,4 24,8 19,7 13 7 31 17 W 1013,7 30 29 0,0
17.06.2018 12:00:00 25,2 12,8 27,4 33,1 24,0 19,7 11 6 27 15 WNW 1013,9 30 43 0,0
17.06.2018 11:00:00 25,9 12,7 33,1 32,5 23,1 19,7 9 5 16 9 WNW 1014,1 20 60 0,0
17.06.2018 10:00:00 23,7 12,5 29,0 27,7 22,7 19,7 6 3 18 10 WSW 1014,2 20 24 0,0
17.06.2018 09:00:00 22,6 13,1 25,0 26,4 22,4 19,7 7 4 16 9 SW 1014,3 15 45 0,0
17.06.2018 08:00:00 19,7 12,9 21,1 21,7 22,5 19,7 7 4 13 7 SSE 1014,0 15 3 0,0
17.06.2018 07:00:00 19,3 12,5 19,6 21,2 22,6 19,7 6 3 11 6 SSE 1013,9 20 3 0,0
17.06.2018 06:00:00 18,6 12,4 17,7 20,6 22,9 19,7 3 2 16 9 SSE 1014,0 20 0 0,0
17.06.2018 05:00:00 19,3 12,0 18,5 20,7 23,2 19,7 8 4 14 8 SE 1013,9 20 0 0,0
17.06.2018 04:00:00 19,3 12,5 18,6 21,1 23,5 19,7 7 4 15 8 SSE 1014,1 25 0 0,0
17.06.2018 03:00:00 19,7 12,5 18,9 21,6 23,8 19,7 4 2 13 7 SSE 1014,4 30 0 0,0
17.06.2018 02:00:00 20,1 12,4 19,2 22,0 24,1 19,7 5 3 14 8 S 1014,6 30 0 0,0
17.06.2018 01:00:00 20,6 12,2 19,8 22,4 24,5 19,7 6 3 13 7 SSE 1014,7 30 0 0,0
17.06.2018 00:00:00 20,8 11,9 19,8 22,9 24,9 19,7 6 4 14 8 SSE 1014,6 30 0 0,0
16.06.2018 23:00:00 21,5 11,5 20,2 23,6 25,4 19,7 7 4 15 8 SE 1014,6 40 0 0,0
16.06.2018 22:00:00 22,3 10,5 20,2 24,7 25,8 19,7 5 3 9 5 ESE 1014,4 40 0 0,0
16.06.2018 21:00:00 22,9 11,6 20,8 26,5 26,2 19,7 5 3 10 6 SE 1014,2 40 1 0,0
16.06.2018 20:00:00 24,4 10,1 23,3 28,7 26,3 19,7 4 2 14 8 SE 1014,0 40 35 0,0

tt = temperature
td = dewpoint
tt 5cm = temperature 5cm
tt -5cm = temperature -5cm
tt -20cm = temperature -20cm
tt -100cm = temperature -100cm
ff = wind speed
fx = gusts
dd = wind direction
ppp = reduced air pressure
vv = visibility
sd = sunshine duration
rr = precipitation

Next stations